Retour au catalogue

YAHSAT 1B

ActifCommunicationsGEO
NORAD 38245·PAYLOAD·🇦🇪 UAE

Lancé Apr 23, 2012 depuis Baikonur Cosmodrome

Loading…

TLE

FraisSource: Space-Track

Époque: Sep 14, 2026, 14:01 UTC

1 38245U 12016A   26257.58454772  .00000119  00000-0  00000-0 0  9997
2 38245   0.0996  89.0265 0000980  75.7249  86.8630  1.00271455 46500

Suivez YAHSAT 1B en temps réel avec AllMySat

Download on the App Store